Wind_Speed
8 9 12 10 5 3 4 4 5 3 4 10 12 12 8 8 4 2 2 4 6 7 9 9 10 10 9 8 8 9 9 10 10 10 11 13 15 16 18 19 20 21 21 22 20 19 17 17 15
8 9 9 11 7 5 2 8 5 3 6 11 12 12 7 5 7 5 0 4 6 8 10 11 11 12 10 10 9 9 9 10 11 12 12 14 15 16 17 18 19 20 20 20 20 20 20 19 19
8 8 9 8 9 4 4 7 5 3 6 10 12 14 9 5 5 6 2 6 6 8 11 11 12 12 12 12 11 12 12 12 13 14 15 15 15 15 16 17 18 18 19 19 19 19 18 18 18
6 8 10 11 9 10 5 6 8 7 7 15 13 10 10 6 5 4 7 7 7 9 10 11 12 12 12 12 13 14 14 13 13 14 14 14 14 14 14 15 15 16 16 17 17 17 17 17 16
5 8 12 11 11 9 3 1 8 5 9 13 15 12 11 6 4 9 10 8 8 9 9 9 9 10 10 11 12 12 12 12 11 11 11 11 11 11 11 11 11 12 13 13 13 13 14 14 14
4 9 7 7 9 9 7 6 8 9 9 12 13 12 8 3 7 10 9 9 8 9 8 8 8 8 8 8 9 9 10 10 9 9 8 8 8 8 9 9 9 9 10 10 11 11 11 11 10
6 8 7 5 1 1 6 9 10 9 7 8 7 8 7 0 8 9 9 9 9 8 8 8 7 7 7 7 7 8 8 9 8 7 7 6 6 6 6 7 7 7 8 8 9 9 9 9 8
4 5 6 2 3 5 3 9 10 8 6 5 7 7 8 2 5 9 10 9 9 9 8 8 7 7 7 7 7 7 7 7 7 7 6 5 5 4 4 5 6 6 7 7 7 7 7 8 8
5 5 6 4 6 6 3 9 10 12 8 8 9 10 9 7 4 8 9 8 8 8 8 9 9 8 7 7 6 6 7 7 7 6 6 5 5 4 4 3 4 5 5 6 7 7 7 8 8
5 6 7 2 2 4 3 6 9 10 10 11 11 12 12 7 5 6 8 8 7 7 8 9 10 9 8 7 7 7 7 7 7 6 6 5 5 5 5 5 5 5 5 6 7 7 8 8 9
6 6 7 6 6 7 8 6 9 12 13 13 14 16 14 9 5 4 7 8 10 11 9 9 10 10 9 9 9 8 8 7 7 7 6 6 6 6 6 5 5 6 7 7 8 8 9 9 9
3 7 12 13 9 12 12 13 14 15 15 17 17 18 15 12 5 2 4 7 9 8 9 10 10 10 9 9 9 9 8 8 8 8 8 7 7 6 6 6 6 6 8 9 9 9 9 9 9
5 4 10 18 17 17 18 18 20 22 19 21 22 21 21 16 9 6 4 3 5 7 9 10 10 10 10 9 9 9 9 9 9 9 8 8 8 7 7 7 6 8 9 10 10 10 10 11 10
4 5 4 5 9 16 17 16 18 16 17 22 26 27 25 22 15 13 7 5 3 4 7 11 11 11 11 10 9 10 10 10 9 9 9 9 9 8 8 6 7 10 10 11 11 12 12 12 11
1 4 4 2 3 3 7 3 6 7 14 20 23 26 26 23 22 16 12 10 8 6 8 8 12 13 12 12 10 10 10 9 10 10 10 9 10 9 8 8 10 11 12 12 13 13 13 12 11
2 2 2 5 3 6 8 4 4 18 14 10 17 22 26 26 24 19 15 11 10 8 7 9 11 13 14 13 12 11 10 10 10 10 9 10 11 10 9 10 11 12 13 14 14 14 13 13 13
2 3 7 7 6 5 8 11 17 18 16 19 20 23 24 21 22 20 18 13 11 9 9 10 11 13 15 16 15 13 12 11 10 10 10 12 12 12 12 11 12 13 14 15 15 15 15 15 14
5 9 11 13 7 7 6 12 18 12 11 12 16 24 26 24 20 14 14 12 12 12 11 12 12 14 16 17 15 13 11 10 9 11 12 14 14 13 12 12 13 14 15 16 16 17 17 16 16
8 13 15 10 8 6 10 11 5 8 12 13 13 14 21 27 23 20 17 15 14 14 11 9 11 13 16 16 14 13 11 12 12 13 15 14 14 14 14 14 14 15 16 17 18 18 18 18 17
12 14 10 5 2 9 3 1 3 9 14 18 18 17 12 19 26 21 17 17 13 12 8 4 7 10 13 14 15 15 16 15 15 14 12 12 14 15 16 16 15 16 17 18 19 19 20 19 19
9 12 9 6 5 2 5 1 2 6 11 14 16 13 10 10 18 18 17 15 16 14 7 3 3 6 11 13 15 16 17 15 14 12 11 13 16 18 18 18 18 17 17 18 20 21 21 21 21
11 5 5 8 7 4 10 2 3 4 9 10 11 11 7 7 12 16 17 17 18 16 13 9 4 2 4 9 13 17 18 17 16 16 18 19 19 19 20 20 20 18 18 19 20 22 22 23 22
8 11 12 14 12 10 13 7 6 2 5 7 10 11 11 9 6 12 14 16 13 15 17 13 10 8 7 8 10 15 18 19 19 19 20 20 19 18 20 22 22 20 19 20 21 21 22 23 24
9 10 10 6 6 3 5 9 7 2 3 6 10 11 13 12 12 10 6 10 15 13 14 14 13 13 13 12 12 14 17 19 22 23 22 22 22 22 22 23 25 24 22 22 23 23 24 24 25
5 7 3 1 0 4 2 5 6 9 6 3 7 12 16 17 15 12 9 8 5 7 14 17 17 17 18 18 18 18 18 20 23 25 27 26 25 24 24 25 26 26 26 26 26 27 27 28 28
9 6 2 2 1 2 5 5 9 12 9 6 3 3 8 10 12 14 17 17 14 11 7 7 15 19 21 23 24 25 24 25 27 27 29 30 29 28 27 27 29 30 31 31 31 32 32 32 32
4 4 3 3 4 2 5 7 14 13 11 9 7 4 5 6 8 11 13 14 16 16 13 10 8 9 15 20 23 25 26 27 28 29 32 32 32 31 32 32 32 32 34 35 35 36 36 36 36
8 7 4 5 3 3 2 9 7 15 14 12 9 8 5 4 6 8 11 13 15 16 17 17 14 12 13 14 15 16 17 19 25 30 32 33 35 35 35 34 35 35 36 38 40 40 39 40 40
7 7 7 6 5 4 4 3 8 18 16 13 11 10 7 5 7 10 12 14 16 18 20 21 19 17 16 16 18 18 19 18 19 22 26 30 34 36 38 37 37 37 38 39 42 42 43 44 43
11 8 8 6 4 5 2 4 8 17 18 15 14 12 10 9 12 12 13 14 17 20 23 24 23 21 21 20 19 19 18 20 21 21 22 26 29 33 34 37 39 40 40 41 44 45 46 47 47
Wind_Direction
271 246 228 227 244 233 165 187 186 232 312 337 334 331 306 279 283 12 48 93 102 103 98 95 99 106 111 115 121 126 124 118 118 112 108 106 101 100 99 99 99 99 103 107 114 119 120 120 123
270 246 226 218 231 234 211 185 180 218 320 326 331 332 317 275 266 260 341 116 114 113 105 100 97 100 109 116 122 119 116 116 116 112 108 107 106 107 107 107 106 106 106 107 109 110 111 112 111
273 236 216 209 220 209 173 165 198 247 315 337 339 333 318 275 274 231 177 140 132 120 109 104 99 97 99 107 114 118 118 116 114 113 112 111 111 109 108 110 111 111 112 112 112 115 117 116 113
276 223 210 213 209 192 177 264 233 272 313 337 330 330 318 303 261 219 164 144 134 122 114 106 103 101 101 104 108 111 113 112 113 114 115 113 112 112 112 112 111 114 115 115 119 120 119 118 118
257 213 212 219 216 191 222 348 203 260 312 327 333 329 315 297 239 176 162 152 146 134 125 120 114 110 110 112 111 113 115 115 116 116 118 120 120 119 117 117 118 119 118 119 118 120 123 124 121
231 211 213 224 222 219 223 259 238 271 292 312 323 329 328 290 187 175 172 164 160 151 142 136 132 130 128 129 127 130 127 128 129 128 130 128 128 129 132 131 132 129 125 125 128 130 125 119 121
230 215 218 214 176 7 239 228 207 245 276 305 331 341 344 188 176 186 185 179 172 165 157 153 155 151 150 148 147 145 144 143 139 140 140 140 141 145 148 146 143 142 137 141 137 132 130 131 129
219 209 202 92 52 53 167 186 203 228 268 309 331 325 337 330 210 201 197 194 184 179 173 169 176 178 169 169 167 164 160 158 154 154 154 150 153 159 166 164 161 160 152 152 144 147 150 147 146
186 195 161 90 113 81 124 203 224 232 260 292 304 306 314 327 241 213 209 206 201 193 192 188 192 191 188 187 184 182 181 175 170 172 169 168 168 172 173 185 187 180 169 168 164 164 162 162 160
183 193 161 132 148 141 148 204 220 227 257 280 297 297 295 304 296 223 206 201 203 207 206 202 200 197 194 197 199 198 198 193 187 185 186 186 180 185 189 192 209 200 190 189 186 175 171 169 167
207 204 211 206 244 222 196 220 237 239 247 272 285 279 276 290 315 251 208 200 202 208 211 212 203 204 195 199 202 203 205 205 202 199 199 202 199 201 204 208 219 221 214 208 202 188 183 178 173
279 227 232 218 256 263 244 230 240 251 259 269 275 273 269 272 268 301 213 203 209 216 217 220 212 204 203 206 207 208 209 209 210 208 209 213 215 216 221 224 231 236 231 221 211 199 193 186 180
297 255 248 243 247 262 270 273 277 260 255 263 268 274 282 271 254 262 269 232 217 220 226 223 218 211 215 213 215 215 213 215 216 214 213 217 221 225 228 232 246 249 239 229 216 205 198 194 185
307 322 321 288 267 261 269 268 267 275 261 254 261 269 269 264 267 259 264 281 265 237 229 227 224 219 222 223 221 222 217 217 217 216 216 220 225 228 237 251 261 256 243 232 219 208 202 196 190
258 78 72 11 307 327 331 94 354 262 248 248 250 257 255 255 256 264 267 260 265 263 245 236 227 221 221 225 226 226 224 218 219 219 217 221 227 228 237 251 252 247 241 232 222 211 206 200 193
267 168 38 356 282 287 307 276 66 323 294 273 264 256 254 251 252 256 255 256 253 253 266 250 234 226 223 223 225 225 227 224 223 223 224 227 227 228 236 247 253 248 240 231 225 216 212 208 204
139 313 332 348 300 283 278 307 317 313 286 266 253 253 258 255 250 249 253 250 253 253 262 268 250 231 223 222 222 221 222 224 229 232 229 230 226 223 229 244 251 249 242 234 229 225 220 216 212
299 318 324 335 306 315 295 304 314 318 322 307 281 266 260 262 261 244 237 243 246 255 267 267 260 243 229 225 223 223 221 225 232 234 231 228 225 224 230 241 247 247 241 234 230 227 224 221 218
308 312 312 326 306 323 314 304 301 304 318 310 300 282 259 247 250 244 236 236 237 240 243 269 261 244 236 231 229 227 221 219 220 226 230 230 230 229 231 237 244 246 241 235 232 230 228 226 222
308 308 314 333 281 313 312 144 337 321 333 344 342 335 311 242 239 246 249 243 244 225 201 245 244 240 237 236 234 230 228 225 226 229 239 247 246 239 234 237 240 242 241 237 233 230 228 226 223
307 303 304 298 324 185 174 168 338 340 343 340 339 339 329 271 242 247 249 242 235 228 191 213 203 220 231 235 237 234 236 234 239 243 241 239 237 237 236 235 237 238 239 238 234 230 228 224 219
312 311 295 296 308 227 229 260 248 329 348 349 1 5 324 290 250 246 253 255 252 236 218 202 212 250 239 243 246 243 239 235 237 237 235 234 234 236 235 234 233 233 234 235 233 230 225 222 217
293 293 296 289 278 276 253 226 200 228 325 19 25 23 24 21 311 265 264 255 266 243 233 226 234 238 253 271 264 252 247 241 234 235 238 240 240 237 237 237 235 232 230 231 231 229 226 222 219
300 302 305 288 242 259 222 200 184 155 76 51 49 51 50 41 34 29 5 282 265 251 245 245 237 232 243 253 264 263 255 245 238 236 235 236 238 237 235 234 234 232 230 229 231 229 226 224 221
306 320 312 339 341 228 217 185 137 176 168 122 73 70 60 53 53 47 47 39 13 268 251 251 249 244 242 245 251 254 252 246 240 236 235 234 236 237 237 235 233 232 230 228 229 231 228 227 225
306 295 239 256 242 278 147 156 143 183 191 203 229 319 0 6 21 30 38 36 32 25 12 261 250 251 253 257 257 256 252 244 237 235 236 234 235 236 237 237 234 232 231 229 228 231 230 229 229
300 278 255 277 262 269 141 137 163 191 199 211 236 261 301 344 357 7 17 19 25 26 15 358 331 280 266 266 268 269 269 265 258 248 240 235 236 237 238 239 238 233 231 231 231 232 233 233 232
273 272 269 227 211 238 122 170 178 198 209 219 231 243 267 336 353 353 357 360 0 3 7 1 343 320 302 289 281 278 273 268 260 253 250 246 241 238 238 239 240 240 238 235 233 232 234 236 236
282 273 248 253 239 180 168 188 212 209 216 220 228 234 247 289 323 338 344 349 350 350 347 343 340 326 310 299 293 289 286 284 277 265 255 253 249 245 243 240 240 241 242 243 240 238 236 236 237
274 262 256 242 241 231 197 167 177 201 215 221 231 240 255 289 308 323 327 331 333 334 335 332 327 319 311 303 298 295 291 286 283 280 270 259 255 255 255 252 247 244 244 244 245 244 242 241 239
Height
3148 3148 3149 3151 3156 3152 3151 3153 3152 3153 3154 3153 3152 3151 3150 3148 3149 3153 3149 3148 3148 3148 3147 3147 3147 3147 3147 3148 3149 3151 3151 3152 3153 3153 3152 3153 3153 3153 3153 3153 3153 3154 3154 3154 3155 3156 3157 3158 3159
3147 3147 3148 3149 3151 3150 3150 3151 3151 3152 3153 3152 3151 3150 3149 3149 3148 3149 3150 3150 3150 3150 3149 3149 3149 3149 3150 3151 3151 3151 3152 3153 3154 3154 3154 3155 3155 3156 3156 3157 3157 3157 3158 3158 3159 3160 3160 3161 3162
3146 3145 3147 3147 3148 3149 3150 3151 3152 3152 3152 3151 3151 3150 3149 3148 3147 3148 3149 3150 3151 3151 3151 3151 3151 3152 3152 3153 3154 3154 3155 3156 3156 3157 3157 3158 3158 3159 3159 3160 3160 3161 3161 3162 3163 3164 3164 3164 3165
3143 3144 3147 3145 3146 3148 3149 3150 3151 3152 3152 3151 3150 3150 3149 3147 3147 3147 3149 3150 3151 3152 3152 3153 3153 3154 3155 3156 3157 3157 3158 3158 3159 3160 3161 3161 3160 3161 3162 3162 3162 3163 3164 3164 3166 3166 3167 3167 3167
3142 3143 3144 3144 3145 3147 3148 3148 3150 3151 3151 3151 3151 3150 3148 3147 3147 3147 3149 3151 3152 3153 3153 3154 3155 3156 3157 3158 3159 3160 3161 3161 3162 3162 3163 3163 3164 3164 3164 3164 3164 3165 3165 3166 3166 3168 3169 3169 3169
3141 3142 3143 3144 3145 3146 3147 3148 3149 3150 3151 3151 3151 3149 3148 3147 3147 3148 3149 3151 3153 3153 3154 3155 3156 3157 3159 3160 3160 3162 3162 3163 3164 3165 3165 3166 3165 3166 3166 3166 3166 3167 3167 3167 3168 3170 3170 3170 3171
3141 3142 3143 3144 3145 3146 3145 3146 3148 3150 3151 3151 3150 3150 3149 3148 3148 3149 3150 3151 3153 3154 3155 3156 3157 3158 3160 3161 3162 3163 3164 3165 3165 3166 3167 3167 3167 3168 3168 3168 3168 3168 3168 3170 3170 3171 3171 3173 3173
3141 3143 3143 3145 3145 3145 3145 3146 3148 3149 3150 3150 3150 3150 3149 3149 3150 3150 3151 3151 3153 3154 3155 3157 3158 3159 3160 3162 3163 3164 3165 3165 3166 3167 3168 3168 3168 3169 3169 3169 3169 3170 3170 3171 3171 3171 3172 3173 3174
3142 3143 3144 3145 3144 3145 3146 3147 3148 3148 3149 3150 3150 3149 3150 3149 3149 3150 3151 3152 3153 3154 3156 3157 3158 3159 3160 3161 3162 3164 3165 3165 3166 3167 3168 3169 3169 3169 3169 3170 3170 3171 3171 3171 3172 3173 3173 3174 3175
3142 3143 3144 3145 3145 3145 3146 3147 3147 3149 3148 3149 3149 3149 3149 3149 3149 3149 3151 3152 3153 3155 3156 3157 3158 3159 3160 3161 3162 3163 3164 3165 3166 3167 3168 3169 3169 3170 3171 3171 3172 3172 3172 3172 3173 3174 3175 3175 3176
3142 3143 3144 3145 3144 3144 3144 3146 3146 3147 3147 3149 3148 3147 3147 3148 3148 3149 3150 3151 3152 3153 3155 3156 3157 3158 3160 3161 3162 3163 3164 3165 3166 3167 3168 3169 3170 3170 3171 3172 3172 3172 3173 3173 3174 3174 3175 3176 3177
3142 3142 3142 3143 3143 3143 3144 3145 3145 3145 3146 3146 3146 3146 3146 3147 3148 3148 3149 3150 3152 3153 3154 3155 3156 3158 3159 3160 3161 3162 3163 3164 3165 3166 3167 3168 3169 3169 3170 3171 3172 3172 3173 3174 3174 3174 3175 3175 3176
3141 3141 3141 3142 3142 3142 3142 3143 3143 3142 3144 3143 3143 3144 3145 3146 3146 3147 3148 3149 3151 3152 3153 3154 3155 3157 3158 3159 3160 3161 3162 3163 3164 3165 3166 3167 3168 3169 3170 3171 3171 3172 3173 3173 3174 3174 3175 3176 3177
3141 3141 3141 3141 3140 3140 3140 3140 3139 3140 3139 3139 3139 3140 3141 3142 3145 3145 3147 3148 3149 3150 3151 3152 3154 3155 3156 3158 3159 3160 3161 3162 3163 3164 3165 3166 3167 3168 3169 3169 3170 3171 3172 3173 3174 3174 3175 3175 3177
3140 3141 3140 3140 3140 3139 3139 3139 3138 3137 3136 3134 3135 3136 3137 3139 3140 3142 3144 3145 3147 3148 3149 3151 3152 3153 3155 3155 3157 3158 3159 3160 3161 3162 3164 3164 3166 3167 3167 3168 3170 3170 3171 3172 3173 3173 3174 3175 3175
3140 3140 3140 3140 3139 3138 3139 3138 3137 3135 3133 3133 3132 3132 3132 3134 3136 3139 3141 3142 3144 3146 3147 3148 3150 3152 3153 3154 3154 3156 3157 3159 3160 3160 3161 3162 3164 3165 3166 3167 3168 3169 3170 3171 3172 3172 3173 3174 3174
3140 3139 3139 3139 3138 3138 3138 3136 3135 3131 3130 3130 3130 3129 3129 3130 3132 3135 3137 3139 3141 3142 3144 3145 3146 3148 3150 3151 3153 3154 3155 3157 3158 3158 3159 3161 3162 3163 3165 3165 3166 3167 3169 3170 3170 3171 3172 3173 3174
3139 3138 3138 3137 3137 3136 3135 3134 3132 3130 3128 3127 3126 3126 3126 3127 3130 3131 3133 3135 3138 3140 3141 3142 3144 3145 3147 3148 3150 3152 3154 3155 3156 3157 3158 3159 3160 3160 3161 3163 3164 3165 3167 3168 3168 3170 3171 3172 3173
3138 3137 3135 3135 3135 3135 3133 3131 3130 3129 3127 3125 3123 3120 3119 3122 3124 3126 3128 3131 3133 3135 3138 3140 3140 3142 3143 3145 3147 3149 3151 3152 3153 3154 3154 3155 3156 3157 3158 3160 3161 3162 3163 3164 3166 3168 3169 3170 3171
3136 3135 3134 3134 3133 3133 3132 3131 3129 3127 3124 3122 3120 3117 3114 3115 3119 3123 3126 3128 3130 3133 3135 3136 3137 3138 3139 3141 3143 3145 3147 3148 3149 3150 3152 3153 3154 3155 3156 3156 3158 3159 3160 3161 3163 3164 3165 3167 3168
3134 3133 3133 3133 3133 3132 3132 3131 3129 3127 3125 3123 3120 3117 3115 3115 3118 3122 3124 3125 3127 3130 3131 3133 3134 3134 3136 3137 3139 3140 3143 3145 3147 3149 3150 3150 3150 3151 3152 3153 3154 3155 3157 3158 3159 3160 3162 3163 3165
3132 3132 3131 3131 3131 3131 3130 3130 3128 3127 3125 3123 3121 3118 3116 3116 3117 3118 3120 3121 3123 3126 3129 3129 3131 3132 3132 3134 3135 3136 3138 3140 3142 3144 3145 3145 3146 3147 3148 3149 3150 3151 3153 3154 3156 3157 3159 3160 3162
3132 3130 3130 3129 3129 3128 3127 3129 3126 3127 3126 3124 3121 3119 3117 3116 3115 3116 3116 3117 3120 3122 3125 3126 3127 3129 3130 3131 3132 3132 3134 3135 3137 3138 3140 3141 3142 3143 3144 3145 3146 3147 3149 3150 3152 3153 3155 3157 3158
3130 3129 3127 3125 3126 3127 3122 3125 3126 3127 3127 3125 3123 3121 3119 3118 3116 3115 3113 3113 3115 3117 3120 3122 3123 3124 3125 3126 3127 3128 3128 3130 3131 3133 3134 3135 3136 3137 3139 3140 3141 3142 3144 3146 3147 3149 3150 3152 3154
3128 3127 3126 3127 3127 3125 3122 3125 3126 3127 3126 3126 3125 3123 3122 3121 3119 3117 3115 3113 3112 3112 3114 3116 3118 3120 3121 3121 3121 3121 3122 3123 3125 3126 3128 3129 3130 3131 3133 3134 3135 3137 3139 3140 3142 3143 3145 3147 3149
3127 3127 3126 3126 3127 3124 3124 3124 3125 3126 3126 3125 3125 3123 3122 3121 3120 3118 3116 3114 3113 3112 3112 3112 3114 3115 3116 3117 3117 3116 3115 3115 3116 3117 3120 3122 3124 3125 3125 3127 3128 3130 3132 3133 3135 3136 3139 3141 3143
3126 3125 3126 3125 3124 3123 3124 3125 3126 3125 3125 3125 3124 3124 3122 3120 3119 3118 3117 3116 3115 3113 3112 3112 3111 3112 3112 3112 3112 3112 3112 3112 3113 3113 3112 3112 3115 3117 3118 3120 3121 3122 3123 3125 3127 3129 3132 3134 3136
3125 3126 3125 3123 3123 3122 3121 3122 3123 3123 3123 3123 3123 3122 3120 3119 3118 3117 3115 3114 3114 3113 3112 3111 3111 3110 3109 3108 3107 3106 3104 3103 3103 3104 3106 3106 3108 3107 3108 3111 3113 3114 3116 3118 3118 3121 3124 3126 3129
3124 3122 3123 3122 3120 3117 3120 3120 3119 3120 3120 3119 3119 3118 3118 3117 3116 3115 3114 3112 3111 3110 3110 3109 3109 3108 3106 3104 3103 3102 3101 3099 3098 3097 3097 3099 3099 3100 3101 3102 3103 3104 3107 3109 3110 3112 3114 3116 3119
3121 3120 3120 3119 3118 3115 3114 3117 3115 3116 3116 3115 3114 3114 3115 3115 3113 3113 3112 3111 3110 3108 3107 3106 3105 3103 3102 3100 3099 3098 3097 3095 3093 3092 3092 3091 3092 3092 3094 3094 3095 3096 3097 3099 3100 3103 3105 3106 3108